| time (UTC) | temp F | wind direction | speed MPH | gust MPH | rain 1hr in | rain 24hr in | rain mn in | humidity % | barometer mb |
| 20260905103845 | 75 | 329 | 0.0 | 0.0 | 0.00 | 0.18 | 0.01 | 95 | 1014.0 |
| 20260905102844 | 75 | 328 | 0.0 | 0.0 | 0.00 | 0.18 | 0.01 | 95 | 1013.8 |
| 20260905101844 | 75 | 329 | 0.0 | 0.0 | 0.00 | 0.18 | 0.01 | 95 | 1013.8 |
| 20260905100846 | 75 | 329 | 0.0 | 0.0 | 0.00 | 0.18 | 0.01 | 95 | 1013.8 |
| 20260905095831 | 75 | 328 | 0.0 | 0.0 | 0.00 | 0.18 | 0.01 | 95 | 1013.8 |
| 20260905094829 | 75 | 329 | 0.0 | 0.0 | 0.00 | 0.18 | 0.01 | 95 | 1013.8 |
| 20260905094752 | 75 | 328 | 0.0 | 0.0 | 0.00 | 0.18 | 0.01 | 95 | 1013.8 |
| 20260905092829 | 75 | 329 | 0.0 | 0.0 | 0.00 | 0.18 | 0.01 | 95 | 1013.7 |
| 20260905092308 | 75 | 328 | 0.0 | 0.0 | 0.01 | 0.18 | 0.01 | 95 | 1013.8 |
| 20260905090828 | 75 | 329 | 0.0 | 0.0 | 0.01 | 0.18 | 0.01 | 95 | 1013.7 |
| 20260905085828 | 76 | 329 | 0.0 | 0.0 | 0.01 | 0.18 | 0.01 | 95 | 1013.8 |
| 20260905084827 | 76 | 328 | 0.0 | 0.0 | 0.01 | 0.18 | 0.01 | 95 | 1013.7 |
| 20260905083829 | 76 | 329 | 0.0 | 0.0 | 0.01 | 0.18 | 0.01 | 95 | 1013.8 |
| 20260905082828 | 76 | 328 | 0.0 | 0.0 | 0.01 | 0.18 | 0.01 | 95 | 1013.8 |
| 20260905081827 | 76 | 329 | 0.0 | 1.0 | 0.00 | 0.17 | 0.00 | 95 | 1013.7 |
| 20260905080828 | 76 | 328 | 0.0 | 0.0 | 0.00 | 0.17 | 0.00 | 95 | 1013.7 |
| 20260905075828 | 76 | 329 | 0.0 | 0.0 | 0.00 | 0.17 | 0.00 | 95 | 1013.7 |
| 20260905074828 | 76 | 329 | 0.0 | 0.0 | 0.00 | 0.17 | 0.00 | 94 | 1013.6 |
| 20260905074309 | 76 | 329 | 0.0 | 0.0 | 0.00 | 0.17 | 0.00 | 94 | 1013.6 |
| 20260905072826 | 76 | 329 | 0.0 | 0.0 | 0.00 | 0.17 | 0.00 | 94 | 1013.6 |
| 20260905071827 | 76 | 329 | 0.0 | 0.0 | 0.00 | 0.17 | 0.00 | 94 | 1013.8 |
| 20260905071747 | 76 | 329 | 0.0 | 0.0 | 0.00 | 0.17 | 0.00 | 95 | 1013.8 |
| 20260905065824 | 76 | 328 | 0.0 | 0.0 | 0.00 | 0.17 | 0.00 | 94 | 1014.0 |
| 20260905064824 | 77 | 329 | 0.0 | 0.0 | 0.00 | 0.17 | 0.00 | 95 | 1014.0 |
| 20260905063813 | 76 | 329 | 0.0 | 0.0 | 0.00 | 0.17 | 0.00 | 95 | 1014.0 |
| 20260905062811 | 77 | 328 | 0.0 | 0.0 | 0.00 | 0.17 | 0.00 | 95 | 1014.0 |
| 20260905061810 | 77 | 329 | 0.0 | 0.0 | 0.00 | 0.17 | 0.00 | 94 | 1014.1 |
| 20260905061246 | 77 | 328 | 0.0 | 0.0 | 0.00 | 0.17 | 0.00 | 94 | 1014.2 |
| 20260905055805 | 77 | 329 | 0.0 | 0.0 | 0.00 | 0.17 | 0.00 | 94 | 1014.3 |
| 20260905054804 | 77 | 328 | 0.0 | 0.0 | 0.00 | 0.17 | 0.00 | 94 | 1014.4 |
| 20260905053803 | 77 | 329 | 0.0 | 0.0 | 0.00 | 0.17 | 0.00 | 94 | 1014.4 |
| 20260905052802 | 77 | 328 | 0.0 | 0.0 | 0.00 | 0.17 | 0.00 | 94 | 1014.6 |
| 20260905052245 | 77 | 329 | 0.0 | 1.0 | 0.00 | 0.17 | 0.00 | 94 | 1014.6 |
| 20260905050801 | 78 | 329 | 0.0 | 0.0 | 0.00 | 0.17 | 0.00 | 94 | 1014.8 |
| 20260905045801 | 78 | 329 | 0.0 | 0.0 | 0.00 | 0.17 | 0.00 | 94 | 1014.9 |
| 20260905044804 | 78 | 329 | 0.0 | 0.0 | 0.00 | 0.17 | 0.00 | 94 | 1015.0 |
| 20260905043801 | 78 | 328 | 0.0 | 2.0 | 0.00 | 0.17 | 0.00 | 94 | 1015.1 |
| 20260905043240 | 78 | 329 | 0.0 | 1.0 | 0.00 | 0.17 | 0.00 | 94 | 1015.1 |
| 20260905041759 | 78 | 329 | 0.0 | 1.0 | 0.00 | 0.17 | 0.00 | 94 | 1015.1 |
| 20260905040757 | 78 | 329 | 0.0 | 0.0 | 0.00 | 0.17 | 0.00 | 94 | 1015.1 |
| 20260905035752 | 78 | 329 | 0.0 | 0.0 | 0.00 | 0.17 | 0.17 | 94 | 1015.2 |
| 20260905034739 | 78 | 329 | 0.0 | 0.0 | 0.00 | 0.17 | 0.17 | 94 | 1015.1 |
| 20260905034222 | 78 | 328 | 0.0 | 0.0 | 0.00 | 0.17 | 0.17 | 94 | 1015.2 |
| 20260905032738 | 78 | 329 | 0.0 | 0.0 | 0.00 | 0.17 | 0.17 | 94 | 1015.4 |
| 20260905031740 | 78 | 329 | 0.0 | 0.0 | 0.00 | 0.17 | 0.17 | 94 | 1015.5 |
| 20260905031216 | 78 | 329 | 0.0 | 0.0 | 0.01 | 0.17 | 0.17 | 94 | 1015.5 |
| 20260905025741 | 78 | 329 | 1.0 | 4.0 | 0.01 | 0.17 | 0.17 | 94 | 1015.7 |
| 20260905024740 | 78 | 328 | 0.0 | 3.0 | 0.01 | 0.18 | 0.17 | 93 | 1015.6 |
| 20260905023740 | 78 | 328 | 0.0 | 2.0 | 0.01 | 0.18 | 0.17 | 93 | 1015.5 |
| 20260905022733 | 78 | 329 | 0.0 | 0.0 | 0.02 | 0.18 | 0.17 | 93 | 1015.3 |
| 20260905022226 | 78 | 329 | 1.0 | 3.0 | 0.02 | 0.18 | 0.17 | 93 | 1015.3 |
| 20260905020732 | 78 | 256 | 1.0 | 4.0 | 0.02 | 0.17 | 0.17 | 93 | 1015.3 |
| 20260905020700 | 78 | 242 | 0.0 | 1.0 | 0.02 | 0.17 | 0.16 | 93 | 1015.2 |
| 20260905015204 | 78 | 242 | 0.0 | 2.0 | 0.02 | 0.17 | 0.16 | 93 | 1015.1 |
| 20260905013725 | 78 | 242 | 0.0 | 3.0 | 0.02 | 0.17 | 0.16 | 93 | 1015.0 |
| 20260905012723 | 78 | 242 | 1.0 | 3.0 | 0.01 | 0.16 | 0.15 | 92 | 1015.0 |
| 20260905011715 | 78 | 242 | 1.0 | 4.0 | 0.01 | 0.16 | 0.15 | 92 | 1015.0 |
| 20260905010716 | 78 | 243 | 1.0 | 4.0 | 0.02 | 0.15 | 0.14 | 92 | 1015.3 |
| 20260905005714 | 78 | 244 | 2.0 | 5.0 | 0.02 | 0.15 | 0.14 | 91 | 1015.0 |
| 20260905004657 | 79 | 270 | 3.0 | 9.0 | 0.02 | 0.15 | 0.14 | 91 | 1015.0 |
| 20260905003656 | 80 | 224 | 4.0 | 10.0 | 0.02 | 0.15 | 0.14 | 92 | 1015.2 |
| 20260905002657 | 80 | 306 | 2.0 | 7.0 | 0.02 | 0.15 | 0.14 | 92 | 1015.3 |
| 20260905001658 | 80 | 160 | 2.0 | 8.0 | 0.02 | 0.16 | 0.14 | 92 | 1015.1 |
| 20260905000642 | 81 | 213 | 0.0 | 3.0 | 0.00 | 0.14 | 0.12 | 92 | 1015.0 |
| 20260904235642 | 81 | 213 | 0.0 | 2.0 | 0.00 | 0.15 | 0.12 | 91 | 1015.0 |
| 20260904235121 | 81 | 213 | 1.0 | 3.0 | 0.00 | 0.16 | 0.12 | 91 | 1014.8 |
| 20260904233643 | 81 | 213 | 1.0 | 4.0 | 0.00 | 0.17 | 0.12 | 92 | 1014.5 |
| 20260904232633 | 80 | 218 | 2.0 | 6.0 | 0.00 | 0.17 | 0.12 | 91 | 1014.8 |
| 20260904232108 | 80 | 208 | 1.0 | 7.0 | 0.00 | 0.17 | 0.12 | 91 | 1014.8 |
| 20260904230631 | 80 | 90 | 2.0 | 6.0 | 0.00 | 0.17 | 0.12 | 91 | 1014.5 |
| 20260904225630 | 81 | 84 | 0.0 | 3.0 | 0.00 | 0.17 | 0.12 | 91 | 1014.1 |
| 20260904225051 | 80 | 15 | 0.0 | 3.0 | 0.00 | 0.17 | 0.12 | 91 | 1013.8 |
| 20260904224715 | 80 | 84 | 1.0 | 4.0 | 0.00 | 0.17 | 0.12 | 91 | 1014.0 |
| 20260904222628 | 80 | 15 | 0.0 | 3.0 | 0.00 | 0.17 | 0.12 | 92 | 1014.3 |
| 20260904221631 | 80 | 10 | 1.0 | 4.0 | 0.00 | 0.17 | 0.12 | 92 | 1014.1 |
| 20260904220631 | 79 | 15 | 0.0 | 1.0 | 0.02 | 0.17 | 0.12 | 91 | 1013.8 |
| 20260904215615 | 79 | 15 | 0.0 | 1.0 | 0.12 | 0.17 | 0.12 | 91 | 1013.0 |
| 20260904214616 | 79 | 15 | 0.0 | 3.0 | 0.12 | 0.17 | 0.12 | 90 | 1013.1 |
| 20260904213615 | 79 | 15 | 5.0 | 13.0 | 0.12 | 0.17 | 0.12 | 89 | 1013.6 |
| 20260904212615 | 79 | 42 | 5.0 | 12.0 | 0.12 | 0.17 | 0.12 | 90 | 1014.1 |
| 20260904211614 | 80 | 10 | 4.0 | 10.0 | 0.12 | 0.17 | 0.12 | 89 | 1014.5 |
| 20260904211055 | 81 | 358 | 4.0 | 10.0 | 0.10 | 0.15 | 0.10 | 86 | 1014.7 |
| 20260904205614 | 83 | 263 | 4.0 | 12.0 | 0.00 | 0.05 | 0.00 | 82 | 1014.7 |
| 20260904204615 | 85 | 200 | 7.0 | 16.0 | 0.00 | 0.05 | 0.00 | 78 | 1014.1 |
| 20260904203614 | 88 | 156 | 7.0 | 16.0 | 0.00 | 0.05 | 0.00 | 72 | 1013.9 |
| 20260904202615 | 92 | 175 | 4.0 | 9.0 | 0.00 | 0.05 | 0.00 | 65 | 1013.3 |
| 20260904201615 | 94 | 249 | 3.0 | 8.0 | 0.00 | 0.05 | 0.00 | 62 | 1013.2 |
| 20260904201051 | 91 | 195 | 5.0 | 12.0 | 0.00 | 0.05 | 0.00 | 65 | 1013.1 |
| 20260904195615 | 92 | 227 | 7.0 | 15.0 | 0.00 | 0.05 | 0.00 | 63 | 1013.2 |
| 20260904195052 | 94 | 190 | 5.0 | 10.0 | 0.00 | 0.05 | 0.00 | 63 | 1013.5 |
| 20260904193610 | 94 | 204 | 4.0 | 9.0 | 0.00 | 0.05 | 0.00 | 64 | 1013.6 |
| 20260904192611 | 91 | 222 | 5.0 | 10.0 | 0.00 | 0.05 | 0.00 | 67 | 1013.9 |
| 20260904191611 | 91 | 263 | 5.0 | 10.0 | 0.00 | 0.05 | 0.00 | 66 | 1014.1 |
| 20260904190607 | 92 | 246 | 3.0 | 9.0 | 0.00 | 0.05 | 0.00 | 64 | 1014.0 |
| 20260904185607 | 95 | 157 | 3.0 | 9.0 | 0.00 | 0.05 | 0.00 | 60 | 1014.1 |
| 20260904184609 | 95 | 202 | 5.0 | 10.0 | 0.00 | 0.05 | 0.00 | 61 | 1014.2 |
| 20260904183602 | 93 | 233 | 2.0 | 7.0 | 0.00 | 0.05 | 0.00 | 64 | 1014.3 |
| 20260904182603 | 92 | 223 | 2.0 | 4.0 | 0.00 | 0.05 | 0.00 | 64 | 1014.6 |
| 20260904181601 | 92 | 225 | 4.0 | 9.0 | 0.00 | 0.05 | 0.00 | 61 | 1014.7 |
| 20260904181032 | 94 | 139 | 4.0 | 12.0 | 0.00 | 0.05 | 0.00 | 60 | 1014.7 |
| 20260904180027 | 92 | 190 | 4.0 | 10.0 | 0.00 | 0.05 | 0.00 | 66 | 1014.9 |
| 20260904174545 | 93 | 145 | 4.0 | 9.0 | 0.00 | 0.05 | 0.00 | 63 | 1015.0 |
| 20260904173537 | 94 | 147 | 4.0 | 9.0 | 0.00 | 0.05 | 0.00 | 62 | 1014.9 |
| 20260904172536 | 94 | 194 | 5.0 | 14.0 | 0.00 | 0.05 | 0.00 | 64 | 1015.1 |
| 20260904171537 | 92 | 151 | 5.0 | 11.0 | 0.00 | 0.05 | 0.00 | 65 | 1015.2 |
| 20260904170536 | 94 | 178 | 4.0 | 11.0 | 0.00 | 0.05 | 0.00 | 63 | 1015.3 |
| 20260904165534 | 92 | 201 | 3.0 | 7.0 | 0.00 | 0.05 | 0.00 | 67 | 1015.5 |
| 20260904164536 | 91 | 173 | 5.0 | 11.0 | 0.00 | 0.05 | 0.00 | 69 | 1015.7 |
| 20260904163535 | 90 | 236 | 4.0 | 10.0 | 0.00 | 0.05 | 0.00 | 70 | 1015.8 |
| 20260904162536 | 93 | 224 | 3.0 | 7.0 | 0.00 | 0.05 | 0.00 | 67 | 1015.9 |
| 20260904161533 | 92 | 217 | 5.0 | 12.0 | 0.00 | 0.05 | 0.00 | 68 | 1016.0 |
| 20260904161014 | 91 | 217 | 5.0 | 12.0 | 0.00 | 0.05 | 0.00 | 71 | 1016.1 |
| 20260904155535 | 92 | 177 | 5.0 | 12.0 | 0.00 | 0.05 | 0.00 | 69 | 1016.2 |
| 20260904154532 | 91 | 163 | 5.0 | 12.0 | 0.00 | 0.05 | 0.00 | 70 | 1016.3 |
| 20260904154016 | 91 | 119 | 5.0 | 10.0 | 0.00 | 0.05 | 0.00 | 72 | 1016.2 |
| 20260904152934 | 89 | 214 | 5.0 | 11.0 | 0.00 | 0.05 | 0.00 | 73 | 1016.1 |
| 20260904152609 | 90 | 173 | 5.0 | 11.0 | 0.00 | 0.05 | 0.00 | 73 | 1016.2 |
| 20260904150532 | 89 | 119 | 5.0 | 11.0 | 0.00 | 0.05 | 0.00 | 76 | 1016.2 |
| 20260904145532 | 89 | 115 | 4.0 | 10.0 | 0.00 | 0.05 | 0.00 | 76 | 1016.1 |
| 20260904144517 | 88 | 198 | 4.0 | 9.0 | 0.00 | 0.05 | 0.00 | 77 | 1016.0 |
| 20260904144439 | 88 | 138 | 2.0 | 8.0 | 0.00 | 0.05 | 0.00 | 79 | 1016.0 |
| 20260904142519 | 87 | 194 | 3.0 | 7.0 | 0.00 | 0.05 | 0.00 | 80 | 1015.9 |
| 20260904141517 | 86 | 190 | 2.0 | 7.0 | 0.00 | 0.05 | 0.00 | 84 | 1015.8 |
| 20260904140517 | 86 | 197 | 3.0 | 8.0 | 0.00 | 0.05 | 0.00 | 85 | 1015.8 |
| 20260904135513 | 85 | 184 | 2.0 | 6.0 | 0.00 | 0.05 | 0.00 | 86 | 1015.7 |
| 20260904134514 | 84 | 180 | 4.0 | 8.0 | 0.00 | 0.05 | 0.00 | 86 | 1015.6 |
| 20260904133514 | 84 | 177 | 2.0 | 7.0 | 0.00 | 0.05 | 0.00 | 88 | 1015.7 |
| 20260904132513 | 83 | 175 | 1.0 | 5.0 | 0.00 | 0.05 | 0.00 | 89 | 1015.7 |
| 20260904131514 | 82 | 210 | 2.0 | 6.0 | 0.00 | 0.05 | 0.00 | 91 | 1015.6 |
| 20260904130513 | 82 | 206 | 1.0 | 3.0 | 0.00 | 0.05 | 0.00 | 92 | 1015.6 |
| 20260904125512 | 81 | 208 | 2.0 | 6.0 | 0.00 | 0.05 | 0.00 | 93 | 1015.5 |
| 20260904124514 | 80 | 163 | 1.0 | 3.0 | 0.00 | 0.05 | 0.00 | 94 | 1015.4 |
| 20260904123505 | 80 | 164 | 1.0 | 3.0 | 0.00 | 0.05 | 0.00 | 95 | 1015.4 |
| 20260904122505 | 79 | 164 | 0.0 | 0.0 | 0.00 | 0.05 | 0.00 | 95 | 1015.2 |
| 20260904121505 | 78 | 164 | 0.0 | 0.0 | 0.00 | 0.05 | 0.00 | 95 | 1015.1 |
| 20260904120506 | 78 | 154 | 0.0 | 0.0 | 0.00 | 0.05 | 0.00 | 95 | 1015.1 |
| 20260904115507 | 77 | 154 | 0.0 | 0.0 | 0.00 | 0.05 | 0.00 | 95 | 1015.0 |
| 20260904114506 | 76 | 154 | 0.0 | 0.0 | 0.00 | 0.05 | 0.00 | 95 | 1015.0 |
| 20260904113505 | 75 | 154 | 0.0 | 0.0 | 0.00 | 0.05 | 0.00 | 95 | 1014.9 |
| 20260904112506 | 75 | 154 | 0.0 | 0.0 | 0.00 | 0.05 | 0.00 | 95 | 1014.8 |
| 20260904111506 | 75 | 154 | 0.0 | 0.0 | 0.00 | 0.05 | 0.00 | 95 | 1014.8 |
| 20260904110506 | 75 | 154 | 0.0 | 0.0 | 0.00 | 0.05 | 0.00 | 95 | 1014.7 |
| 20260904105502 | 75 | 154 | 0.0 | 0.0 | 0.00 | 0.05 | 0.00 | 94 | 1014.6 |
| 20260904104502 | 75 | 154 | 0.0 | 0.0 | 0.00 | 0.05 | 0.00 | 95 | 1014.4 |